2022-087B (53300 NORAD) Tracking and Keplerian Element Data

This shows tracking and keplerian element data for the satellite.

Feedback or suggestion? Click here.




ElementValue
Catalog53300
Name2022-087B
Epoch Orbit1781
Epoch Day325.26139012
Epoch Year2022
RAAN37.7994
Inclination97.3929
Eccentricity0.0013577
Argument of Perigee238.5514
Mean Anonmoly206.219
Mean Motion15.22754734
Decay Rate5.288E-05
L11 53300U 22087B 22325.26139012 .00005288 00000+0 22899-3 0 9993
L22 53300 97.3929 37.7994 0013577 238.5514 206.2190 15.22754734 17819



Live tracking and technical data element details for 2022-087B (NORAD 53300). 2022-087B can be tracked NOW for your location showing map with azimuth and elevation plus other details from your city location.







IsCatalogInMostPopularTable: catalog: 53300, numindb: 4
Update: records affected: 1



GetName: 53300 2022-087B

Hit Count: updated at: Thu, 08 Dec 2022 20:44:38 GMT